Terug naar catalogus

STARLINK-5593

ActiefCommunicatieVLEO
NORAD 55763·PAYLOAD·🇺🇸 United States

Gelanceerd Mar 3, 2023 vanaf Vandenberg Space Force Base

Loading…

Volgende Passages (komende 24 uur)

TLE

VersSource: CelesTrak SupGP

Epoch: Sep 15, 2026, 02:47 UTC

1 55763C 23028Y   26258.11645833  .00025763  00000+0  21591-2 0  2585
2 55763  70.0000 126.6843 0002467 274.3644 259.2297 14.98317426    16

Volg STARLINK-5593 in realtime met AllMySat

Download on the App Store